Weather History for KHDE - December, 2011

Change the Weather History Date:

Friday, December 2, 2011

  Actual Average (KEAR) Record (KEAR)
Temperature  
Mean Temperature 25 °F 29 °F  
Max Temperature 37 °F 40 °F 70 °F (2012)
Min Temperature 13 °F 18 °F -11 °F (1919)
Degree Days  
Heating Degree Days 40 36  
Month to date heating degree days 71  
Since 1 July heating degree days 1504  
Cooling Degree Days 0 0  
Month to date cooling degree days 0  
Year to date cooling degree days 871  
Moisture  
Dew Point 14 °F    
Average Humidity 68    
Maximum Humidity 84    
Minimum Humidity 42    
Precipitation  
Precipitation 0.00 in - 2.53 in (1933)
Sea Level Pressure  
Sea Level Pressure 30.18 in    
Wind  
Wind Speed 9 mph (SSW)    
Max Wind Speed 25 mph    
Max Gust Speed 32 mph    
Visibility 10 miles    
Events      
T = Trace of Precipitation, MM = Missing Value Source: NWS Daily Summary

Daily Weather History Graph

Daily Weather History Graph

Search for Another Location

Airport or City:

Trip Planner

Search our weather history database for the weather conditions in past years. The results will help you decide how hot, cold, wet, or windy it might be!

Date:

Astronomy

Dec. 02, 2011 Rise Set
Actual Time 7:42 AM CST 5:11 PM CST
Civil Twilight 7:11 AM CST 5:41 PM CST
Nautical Twilight 6:37 AM CST 6:15 PM CST
Astronomical Twilight 6:04 AM CST 6:48 PM CST
Moon 12:52 PM CST (12/2) 12:12 AM CST (12/2)
Length of Visible Light 10h 29m
Length of Day
9h 29m
First Quarter, 53% of the Moon is Illuminated
Dec 2
First Quarter
Dec 10
Full
Dec 17
Last Quarter
Dec 24
New
Jan 1
First Quarter

Hourly Weather History & Observations

Time (CST) Temp. Windchill Dew Point Humidity Pressure Visibility Wind Dir Wind Speed Gust Speed Precip Events Conditions
12:15 AM 17.1 °F 7.6 °F 11.7 °F 79% 30.47 in 10.0 mi NW 6.9 mph - N/A   Clear
12:55 AM 15.3 °F 7.9 °F 10.8 °F 82% 30.46 in 10.0 mi WNW 4.6 mph - N/A   Clear
1:15 AM 15.1 °F 7.7 °F 10.4 °F 82% 30.45 in 10.0 mi West 4.6 mph - N/A   Clear
1:35 AM 15.8 °F 8.6 °F 11.1 °F 82% 30.44 in 10.0 mi West 4.6 mph - N/A   Clear
1:55 AM 15.8 °F 8.6 °F 11.3 °F 82% 30.43 in 10.0 mi West 4.6 mph - N/A   Clear
2:15 AM 15.6 °F 8.3 °F 11.1 °F 82% 30.42 in 10.0 mi West 4.6 mph - N/A   Clear
2:35 AM 15.8 °F 10.2 °F 11.1 °F 82% 30.42 in 10.0 mi SW 3.5 mph - N/A   Clear
2:55 AM 15.1 °F 9.4 °F 10.4 °F 82% 30.42 in 10.0 mi SW 3.5 mph - N/A   Clear
3:15 AM 14.9 °F 9.2 °F 10.0 °F 81% 30.40 in 10.0 mi SW 3.5 mph - N/A   Clear
3:35 AM 15.3 °F 9.6 °F 10.9 °F 83% 30.39 in 10.0 mi SW 3.5 mph - N/A   Clear
3:55 AM 14.4 °F 6.9 °F 10.2 °F 84% 30.38 in 10.0 mi SW 4.6 mph - N/A   Clear
4:15 AM 14.4 °F 2.4 °F 10.4 °F 84% 30.37 in 10.0 mi SW 9.2 mph - N/A   Clear
4:35 AM 14.0 °F 3.9 °F 9.5 °F 82% 30.36 in 10.0 mi SW 6.9 mph - N/A   Clear
5:15 AM 14.9 °F 6.1 °F 10.4 °F 82% 30.34 in 10.0 mi SW 5.8 mph - N/A   Clear
5:35 AM 14.4 °F 3.3 °F 10.0 °F 83% 30.32 in 10.0 mi SW 8.1 mph - N/A   Clear
5:55 AM 14.9 °F 6.1 °F 10.4 °F 82% 30.31 in 10.0 mi SW 5.8 mph - N/A   Clear
6:15 AM 14.7 °F 3.8 °F 10.2 °F 82% 30.31 in 10.0 mi SW 8.1 mph - N/A   Clear
6:35 AM 14.7 °F 5.9 °F 10.2 °F 82% 30.30 in 10.0 mi SW 5.8 mph - N/A   Clear
6:55 AM 14.5 °F 7.1 °F 10.0 °F 82% 30.30 in 10.0 mi SW 4.6 mph - N/A   Clear
7:15 AM 13.8 °F 6.2 °F 9.3 °F 82% 30.29 in 10.0 mi SW 4.6 mph - N/A   Clear
7:35 AM 13.3 °F 4.2 °F 9.3 °F 84% 30.28 in 10.0 mi SSW 5.8 mph - N/A   Clear
7:55 AM 13.8 °F 3.7 °F 9.7 °F 84% 30.27 in 10.0 mi SSW 6.9 mph - N/A   Clear
8:15 AM 14.5 °F 5.7 °F 10.2 °F 83% 30.27 in 10.0 mi SW 5.8 mph - N/A   Clear
8:55 AM 18.1 °F 10.0 °F 13.1 °F 81% 30.25 in 10.0 mi South 5.8 mph - N/A   Clear
9:15 AM 21.2 °F 10.1 °F 14.9 °F 77% 30.24 in 10.0 mi SSW 10.4 mph - N/A   Clear
9:35 AM 23.2 °F 12.0 °F 16.0 °F 74% 30.24 in 10.0 mi South 11.5 mph 17.3 mph N/A   Clear
9:55 AM 25.2 °F 12.9 °F 16.7 °F 70% 30.23 in 10.0 mi South 15.0 mph 20.7 mph N/A   Clear
10:15 AM 26.1 °F 13.1 °F 16.0 °F 66% 30.23 in 10.0 mi SSW 17.3 mph - N/A   Clear
10:35 AM 27.5 °F 13.9 °F 15.8 °F 61% 30.22 in 10.0 mi South 20.7 mph 25.3 mph N/A   Clear
10:55 AM 28.4 °F 17.0 °F 15.1 °F 57% 30.21 in 10.0 mi South 15.0 mph - N/A   Clear
11:15 AM 30.4 °F 19.1 °F 14.7 °F 52% 30.20 in 10.0 mi South 16.1 mph 20.7 mph N/A   Clear
11:35 AM 30.9 °F 18.7 °F 14.7 °F 51% 30.18 in 10.0 mi South 19.6 mph 25.3 mph N/A   Clear
11:55 AM 32.0 °F 20.5 °F 14.0 °F 48% 30.16 in 10.0 mi South 18.4 mph 23.0 mph N/A   Clear
12:15 PM 32.5 °F 21.5 °F 14.4 °F 47% 30.14 in 10.0 mi South 17.3 mph 25.3 mph N/A   Clear
12:35 PM 33.4 °F 22.3 °F 14.0 °F 45% 30.13 in 10.0 mi South 18.4 mph 27.6 mph N/A   Clear
12:55 PM 34.0 °F 22.4 °F 13.1 °F 42% 30.11 in 10.0 mi South 20.7 mph 26.5 mph N/A   Clear
1:15 PM 34.7 °F 23.1 °F 14.2 °F 43% 30.09 in 10.0 mi South 21.9 mph 28.8 mph N/A   Clear
1:35 PM 35.4 °F 24.3 °F 15.1 °F 43% 30.07 in 10.0 mi South 20.7 mph 27.6 mph N/A   Clear
1:55 PM 36.5 °F 26.3 °F 15.3 °F 42% 30.06 in 10.0 mi South 18.4 mph 25.3 mph N/A   Clear
2:15 PM 36.7 °F 26.3 °F 16.2 °F 43% 30.04 in 10.0 mi South 19.6 mph 24.2 mph N/A   Clear
2:35 PM 37.0 °F 26.4 °F 16.7 °F 44% 30.02 in 10.0 mi South 20.7 mph 26.5 mph N/A   Clear
2:55 PM 37.2 °F 25.6 °F 17.1 °F 44% 30.00 in 10.0 mi South 25.3 mph 31.1 mph N/A   Clear
3:15 PM 36.9 °F 25.6 °F 17.8 °F 46% 30.00 in 10.0 mi South 23.0 mph 32.2 mph N/A   Clear
3:35 PM 36.5 °F 25.7 °F 17.6 °F 46% 29.98 in 10.0 mi South 20.7 mph 29.9 mph N/A   Clear
3:55 PM 36.1 °F 24.7 °F 18.3 °F 48% 29.97 in 10.0 mi South 23.0 mph 32.2 mph N/A   Clear
4:15 PM 35.6 °F 24.0 °F 18.5 °F 50% 29.97 in 10.0 mi South 23.0 mph 28.8 mph N/A   Clear
4:35 PM 34.3 °F 23.2 °F 18.5 °F 52% 29.97 in 10.0 mi South 19.6 mph 27.6 mph N/A   Clear
4:55 PM 33.6 °F 23.3 °F 18.9 °F 55% 29.97 in 10.0 mi South 16.1 mph 21.9 mph N/A   Clear
5:15 PM 32.0 °F 23.0 °F 18.5 °F 58% 29.97 in 10.0 mi South 11.5 mph - N/A   Clear
5:35 PM 30.0 °F 21.1 °F 18.1 °F 61% 29.97 in 10.0 mi SSE 10.4 mph - N/A   Clear
5:55 PM 29.3 °F 23.2 °F 18.0 °F 63% 29.98 in 10.0 mi SSE 5.8 mph - N/A   Clear
6:15 PM 27.0 °F 21.6 °F 17.2 °F 67% 29.98 in 10.0 mi ESE 4.6 mph - N/A   Clear
6:35 PM 24.3 °F 14.6 °F 15.8 °F 70% 29.98 in 10.0 mi SE 9.2 mph - N/A   Clear
6:55 PM 25.9 °F 13.8 °F 18.3 °F 73% 29.96 in 10.0 mi SSE 15.0 mph - N/A   Clear
7:15 PM 27.0 °F 16.7 °F 19.4 °F 73% 29.97 in 10.0 mi SSE 11.5 mph - N/A   Clear
7:35 PM 27.9 °F 16.8 °F 21.0 °F 75% 29.97 in 10.0 mi SSE 13.8 mph - N/A   Clear
7:55 PM 27.5 °F 18.0 °F 21.2 °F 77% 29.96 in 10.0 mi SSE 10.4 mph - N/A   Clear
8:15 PM 27.9 °F 18.4 °F 21.7 °F 78% 29.97 in 10.0 mi South 10.4 mph - N/A   Clear
8:35 PM 27.7 °F 19.6 °F 22.1 °F 80% 29.98 in 10.0 mi South 8.1 mph - N/A   Clear
8:55 PM 26.6 °F 20.0 °F 21.7 °F 82% 29.98 in 10.0 mi SSE 5.8 mph - N/A   Clear
9:15 PM 25.2 °F 15.7 °F 21.0 °F 84% 29.97 in 10.0 mi SE 9.2 mph - N/A   Clear
9:35 PM 23.9 °F 15.0 °F 20.3 °F 86% 29.98 in 10.0 mi SE 8.1 mph - N/A   Clear
9:55 PM 24.8 °F 16.1 °F 21.4 °F 87% 29.98 in 10.0 mi SSE 8.1 mph - N/A   Clear
10:15 PM 25.9 °F 21.7 °F 21.7 °F 84% 29.99 in 10.0 mi North 3.5 mph - N/A   Clear
10:35 PM 24.1 °F 15.2 °F 20.3 °F 85% 29.98 in 10.0 mi SSE 8.1 mph - N/A   Clear
10:55 PM 24.8 °F 16.9 °F 21.2 °F 86% 29.99 in 10.0 mi South 6.9 mph - N/A   Clear
11:15 PM 24.1 °F - 20.1 °F 85% 30.00 in 10.0 mi Calm Calm - N/A   Clear
11:35 PM 22.8 °F 18.2 °F 20.1 °F 89% 29.99 in 10.0 mi SE 3.5 mph - N/A   Clear
11:55 PM 20.3 °F 15.4 °F 18.0 °F 91% 29.99 in 10.0 mi ESE 3.5 mph - N/A   Clear